(602) Marianna
ephemeris date magn radius delta ra dec elong phase
Today11 May 202514.93.384 AU3.482 AU08h36m+20°47'76.1°16.8°
Opposition22 Mar 202614.13.818 AU2.834 AU11h50m-10°32'169.4°2.7°
(602) Marianna - 2025-05-11
astro.vanbuitenen.nl


 
-1 year
-1 month
-1 day
Now
+1 day
+1 month
+1 year

The interactive orbit chart above shows the body's path through the solar system and its position at the given date. Green and blue lines are shown perpendicular to the ecliptic plane: Green if the path is above the ecliptic plane, blue if it is below. (Left-click and drag to rotate the view; Right-click and drag to move the view; Use scroll wheel to zoom in our out.)

The orbital elements of Marianna are:

            e (Eccentricity)                : 0.2519131
            a (Semimajor axis)              : 3.0807102
            i (Inclination)                 : 15.11471
            Ω (Longitude of ascending node) : 331.38792
            ω (Argument of perihelion)      : 45.63480
            M (Mean anomaly)                : 98.62645
            Epoch                           : 2025 May 05

            L (Longitude of perihelion)     : 16.01418
            B (Latitude of perihelion)      : 10.74342
            P (Orbital period in years)     : 5.41            
        

The light curve chart below shows the estimated development of the minor planet's magnitude.


The all-sky chart below shows the path of the minor planet over the same period as the light curve. The current position is marked yellow.





The following chart shows the path of the minor planet in the next few days. The field of view is optimized for (~10x50) binoculars and finderscopes. A more printer-friendly version of the same chart can be found below.




Ephemerides:
Date       Time       RA (2000)    DEC (2000)    delta   radius  elong  phase   PA    magn
2025-05-11 00:00 UT   08 36 55.2   +20 47 44     3.482    3.384   76.1   16.8   104   14.9 
2025-05-11 14:29 UT   08 37 24.3   +20 44 16     3.492    3.385   75.6   16.8   104   14.9 
2025-05-12 00:00 UT   08 37 43.6   +20 41 59     3.498    3.386   75.3   16.8   104   14.9 
2025-05-13 00:00 UT   08 38 32.6   +20 36 12     3.514    3.388   74.6   16.7   104   14.9 
2025-05-14 00:00 UT   08 39 22.2   +20 30 24     3.530    3.390   73.8   16.6   104   14.9 
2025-05-15 00:00 UT   08 40 12.4   +20 24 34     3.546    3.392   73.1   16.6   104   14.9 
2025-05-16 00:00 UT   08 41 03.2   +20 18 43     3.562    3.394   72.3   16.5   104   15.0 
2025-05-17 00:00 UT   08 41 54.5   +20 12 50     3.578    3.396   71.6   16.4   104   15.0 
2025-05-18 00:00 UT   08 42 46.3   +20 06 55     3.594    3.398   70.8   16.3   104   15.0 
2025-05-19 00:00 UT   08 43 38.7   +20 00 59     3.609    3.400   70.1   16.2   104   15.0 
2025-05-20 00:00 UT   08 44 31.5   +19 55 01     3.625    3.402   69.3   16.2   105   15.0 
2025-05-21 00:00 UT   08 45 24.9   +19 49 02     3.641    3.405   68.6   16.1   105   15.0 
2025-05-22 00:00 UT   08 46 18.8   +19 43 00     3.656    3.407   67.9   16.0   105   15.0 
2025-05-23 00:00 UT   08 47 13.2   +19 36 57     3.672    3.409   67.1   15.9   105   15.0 
2025-05-24 00:00 UT   08 48 08.0   +19 30 53     3.687    3.411   66.4   15.8   105   15.0 
2025-05-25 00:00 UT   08 49 03.3   +19 24 47     3.702    3.413   65.7   15.7   105   15.0 
2025-05-26 00:00 UT   08 49 59.1   +19 18 39     3.717    3.415   65.0   15.6   105   15.0 
2025-05-27 00:00 UT   08 50 55.3   +19 12 29     3.733    3.417   64.3   15.5   105   15.0 
2025-05-28 00:00 UT   08 51 51.9   +19 06 17     3.748    3.419   63.5   15.4   105   15.0 
2025-05-29 00:00 UT   08 52 49.0   +19 00 04     3.763    3.421   62.8   15.3   105   15.1 
2025-05-30 00:00 UT   08 53 46.4   +18 53 49     3.777    3.423   62.1   15.2   105   15.1 
2025-05-31 00:00 UT   08 54 44.3   +18 47 33     3.792    3.425   61.4   15.1   105   15.1 
2025-06-01 00:00 UT   08 55 42.5   +18 41 15     3.807    3.427   60.7   15.0   105   15.1 
2025-06-02 00:00 UT   08 56 41.2   +18 34 55     3.822    3.429   60.0   14.8   105   15.1 
2025-06-03 00:00 UT   08 57 40.1   +18 28 33     3.836    3.431   59.3   14.7   105   15.1 
2025-06-04 00:00 UT   08 58 39.5   +18 22 09     3.851    3.433   58.6   14.6   106   15.1 
2025-06-05 00:00 UT   08 59 39.2   +18 15 44     3.865    3.435   57.9   14.5   106   15.1 
2025-06-06 00:00 UT   09 00 39.2   +18 09 18     3.879    3.436   57.2   14.4   106   15.1 
2025-06-07 00:00 UT   09 01 39.6   +18 02 49     3.893    3.438   56.5   14.2   106   15.1 
2025-06-08 00:00 UT   09 02 40.2   +17 56 19     3.907    3.440   55.8   14.1   106   15.1 
2025-06-09 00:00 UT   09 03 41.2   +17 49 47     3.921    3.442   55.1   14.0   106   15.1 
2025-06-10 00:00 UT   09 04 42.5   +17 43 13     3.935    3.444   54.4   13.9   106   15.1 


    Terminology:
            
    delta:  distance between minor planet and earth in AU
    radius: distance between minor planet and sun in AU
    magn:   magnitude (brightness) estimate    
    ra:     right ascension in hours (24h = 360deg)
    dec:    declination in degrees
    elong:  elongation in degrees (angle sun-earth-minor planet)    
    phase:  phase angle in degrees (angle sun-minor planet-earth)        
    AU:     Astronomical Unit (mean distance between earth and sun: 149597870.7 km
    

Orbital elements provided by the MPC (Minor Planet Center).
Calculations by a modified version of AAPlus, a C# implementation of the AA+ project by PJ Naughter from the algorithms presented in the book "Astronomical Algorithms" by Jean Meeus.
NGC2000 dso catalog and star labels from VizieR as provided by the Strasbourg astronomical Data Center.
Tycho2 catalog from the ESO archive.